Category :
No.FOSSQuestion TitleDateViewsVotesAnswersUser
Affordable-LaptopLog in related issue due to disk space problem2020-08-04 04/08/201901ABose
ScilabScilab is not working2020-07-31 31/07/202501unnati
DWSIMThermodynamic property package selection2020-07-31 31/07/202601madhur14
Affordable-LaptopInstalling hard disk in RDP thinbook2020-07-31 31/07/201701sumedha_m…
ScilabFTP file transfert2020-07-29 29/07/201000damo29
DWSIMUsing temperature dependent function of K in Equilibrium Reactor2020-07-27 27/07/202501hadi.ebra…
Affordable-LaptopInstalling python3.6 on linux92020-07-27 27/07/203001sumedha_m…
Affordable-LaptopRemotely accessing windows desktop from linux machine2020-07-25 25/07/202301sumedha_m…
PythonAmount is debited but transaction is failed2020-07-25 25/07/204000Andy@1108
DWSIMI have installed and configured GNU Octave but i cant able to model pc shaft2020-07-25 25/07/204102varun
DWSIMHow to model Pc Shaft in Dwsim updated version.2020-07-24 24/07/202702varun
Affordable-LaptopIssue in extracting vpn files to overwrite default config files2020-07-22 22/07/205303sumedha_m…
eSimError while installing Esim2020-07-19 19/07/205201gouravjha7
Affordable-LaptopDisk space related issue2020-07-18 18/07/202901ABose
DWSIMNEW COMPOUND ADD2020-07-18 18/07/205201sanjayaso…
OsdagWhen will be the all design elements like tension compression etc will release …2020-07-15 15/07/204101vrvg11
OpenFOAMRegarding error in new expression syntax in openfoam 19122020-07-15 15/07/204501drijazfaz…
Affordable-LaptopNo sound input2020-07-14 14/07/204601sumedha_m…
eSimOpening schematic for a new project2020-07-14 14/07/205501Hela123
DWSIMDWSIM installation Error2020-07-13 13/07/206101sagar.j
eSimfoot print layout for PCB designing for 7805voltage reggulator2020-07-10 10/07/206802Avinash@1…
DWSIMsimulation inspector2020-07-09 09/07/205301div348
ScilabHow can I align the zeros in a two y-axes plot2020-07-09 09/07/204500jlafouger…
eSimfoot print layout for PCB design2020-07-09 09/07/205702Avinash@1…
eSimUnable to open schematic2020-07-09 09/07/205502Hela123
OpenFOAMHow to update supply temperature on boundary based on the measured temperature …2020-07-03 03/07/209001drijazfaz…
DWSIMHeterogeneous Catalytic Error tf=t02020-07-01 01/07/208301evapagan
Affordable-LaptopBluetooth Wireless headset (Skull candy Riffle wireless) not connecting to lapt…2020-07-01 01/07/206602saiplanner
eSimFootprint library2020-06-29 29/06/207801Nikhibhy
eSimWhy there is a need of PWR_FLAG?2020-06-28 28/06/2071011930120
eSimUnder "Device Modeling" Tab for Kicad to Ngspice conversion, what kinds of file…2020-06-28 28/06/2070011930120
eSimEsim doesnt start - gives error message related to ZLIB_1.2.9 on Ubuntu 18.04.42020-06-27 27/06/209302alfaraser
PythonPython certification for May 20202020-06-26 26/06/208900devasmit
PythonPython certification2020-06-26 26/06/205500devasmit
FOSSEE LaptopDownload mobdro 2.1.86 for PC or laptop?2020-06-26 26/06/206001AlmiraAlma
ScilabRegarding TBC internship forms2020-06-25 25/06/206201Nandika_A…
Pythonfailure to run ipython2020-06-23 23/06/205901skumar484
RInstalling R and R Studio2020-06-22 22/06/206000Ruqsalvi19
ScilabCan't display results on a plot2020-06-22 22/06/207400termobermo
PythonJupyter Notebook issues with Python32020-06-20 20/06/205801Dipgo
ScilabIGBT Block in Scilab/Xcos2020-06-19 19/06/208300mat885
ScilabHow Can I choose one root between two roots in a second order polynomial on Sci…2020-06-19 19/06/208200termobermo
FOSSEE LaptopHow to configure bios2020-06-17 17/06/206001jhonyd1
OpenFOAMPostProcess for OpenFOAM1606+2020-06-16 16/06/209901Tgs4HW
Pythonwill use issue certificate of Python Self Learning Course of python of may 20202020-06-15 15/06/2010700vinodcsit
PythonCertificate not issued2020-06-14 14/06/2011402hatimhuss…
DWSIMRegarding Optimization Tool2020-06-13 13/06/207901Milan
eSimInbuild project2020-06-12 12/06/208901Anil92
eSimInvert the signal2020-06-12 12/06/207901bosco303
eSimeSim devices2020-06-12 12/06/208501Avinash@1…
PythonCERTIFICATION2020-06-11 11/06/2018402VISHNUVAR…
eSimunable to install eSim 2.0 on ubuntu 20.04LTS2020-06-11 11/06/208901Varad
eSimDevies in filter2020-06-11 11/06/209902Avinash@1…
ScilabScilab not working with ubuntu 20.04 LTS2020-06-10 10/06/2013500ankit510
PythonRegarding course access2020-06-10 10/06/209500Vaishnavi…
ScilabScilab memory (stacksize) issues2020-06-10 10/06/207600vvadde@gm…
eSimunable to install eSim 2.0 on ubuntu 20.04LTL2020-06-10 10/06/206701Varad
Pythonregarding B grade in self learning python course2020-06-09 09/06/209700vinodcsit
PythonCertificate enquiry2020-06-09 09/06/2011700prav17225…
ScilabHow to integrate Scilab with Moodle platfrom for performing the practical2020-06-09 09/06/208600pratik.ag…
ScilabSolution for following error2020-06-09 09/06/208200cmrit
PythonGrading System2020-06-02 02/06/2012201saahilz
ScilabRegarding TBC2020-06-02 02/06/208101Nandika_A…
PythonHow to register for Python self learning course?2020-06-01 01/06/2015401sobiyamou…
Scilabxcos modulo function2020-05-31 31/05/2011301btremaine
PythonRegarding python self learning course and workshop2020-05-31 31/05/2010701Shivangi_…
Scilabxcos vector division2020-05-29 29/05/209200MAyliffe97
eSimnon conduction of bottom SCR2020-05-28 28/05/2010201suji1234++
eSimnon conduction of SCR2020-05-28 28/05/208601suji1234++
ScilabDrawing with xcos2020-05-28 28/05/207700Omeg12
ScilabQuestion about radius value in polarplot command2020-05-27 27/05/2010200Joao_Bomf…
FOSSEE LaptopToolbar and multimedia list2020-05-23 23/05/207001GSMahapat…
PythonSpyder3 Update2020-05-23 23/05/208301GSMahapat…
Affordable-Laptopbattery charging LED2020-05-23 23/05/208201peeyushte…
ScilabModelica error2020-05-23 23/05/2011400g_haldank…
ScilabXcos gives a modelica error2020-05-23 23/05/2010600g_haldank…
FOSSEE LaptopBrightness of screen2020-05-23 23/05/207301GSMahapat…
ScilabXcos Electrical Loads Analysis2020-05-22 22/05/2011900MAyliffe97
Affordable-LaptopBuying a new adaptor for rdp laptop2020-05-22 22/05/209901nilesh.hi…
Scilabcreating random numbers and histogram plot in scilab2020-05-22 22/05/2010900debidatta
PythonCanopy unavailable2020-05-20 20/05/2010001devasmit
ScilabRandom No. Generator Code in ScIlab and its visualization in graph by help of c…2020-05-19 19/05/2012002debidatta
Rhow to install R and R-studio on Macbook2020-05-18 18/05/2010101eshabansa…
eSimhow to get LM 7412020-05-17 17/05/2011801kalai_123…
PythonAbout Certificates2020-05-16 16/05/2021702sritamasw…
PythonRegarding python next schedule2020-05-16 16/05/2011001Aishwarya…
ScilabScilab Textbook Companion Project2020-05-16 16/05/2013801Usaid
eSimToo few parameters2020-05-15 15/05/2012202christina…
ScilabCan't import Matlab libraries?.2020-05-14 14/05/205601iosman001
DWSIM3-phase separator2020-05-14 14/05/2017602Danita
ScilabXCOS scope plot gridlines2020-05-13 13/05/2011901fbartra
eSimvoltage regulator2020-05-12 12/05/2013801bosco303
DWSIMPVC Component2020-05-12 12/05/2011301aravindfo
Scilabusing debug mode2020-05-12 12/05/2014002B@Ksva
Affordable-LaptopKDE plasma login2020-05-11 11/05/2010402GSMahapat…
ScilabLevenberg Marquardt2020-05-11 11/05/2010300RudiLehn
eSimBoost converter switch2020-05-11 11/05/2014901bosco303
eSimreference designator for Mosfet in subcircuit2020-05-06 06/05/2013201FireLdrago
ScilabHow to fit data and derivate fited data?2020-05-04 04/05/2012601proxquad
DWSIMError in Equilibrium Reactor2020-05-04 04/05/2013001Deep_Sino…
Scilabusing spinner uicontrol2020-05-03 03/05/2012603B@Ksva
PythonRegistration2020-05-01 01/05/2018801sknama
Pythondo we have pyhton shell on Ubuntu / linux platform2020-04-29 29/04/2011201Harshala
PythonUnable to download canopy as instructed by Instructor2020-04-29 29/04/2012401sbirthari…
RHow to find the Code files from where we can download captaincy.csv data file f…2020-04-28 28/04/2016701snehangshu
ScilabProblem with dynamic link - Ubuntu2020-04-28 28/04/2012601Galandak.J
ScilabRésolution of ODE +log2020-04-27 27/04/2012000Lolamagiq…
PythonRegarding Certificate2020-04-27 27/04/2019402Vaidehi15
DWSIMPolymer Component creator2020-04-27 27/04/2014103aravindfo
RIf I insrall latest version of R , Any problem arise in my learning??2020-04-27 27/04/2012601immangwu
PythonHow to down load Ipython in windows2020-04-26 26/04/2010901srikanths…
Affordable-LaptopIs there any software upgrade from debian 9 to debian 10 buster?2020-04-25 25/04/2013401Jothi
ScilabScilab Coding for cluster formation in scilab2020-04-25 25/04/2014601debidatta
Pythonerror in cat2020-04-23 23/04/2013301sonys.ec@…
ScilabScilab Coding for cluster analysis in molecular dynamics2020-04-19 19/04/2019100debidatta
RInstallation Package like mass, ggplot2 are not installed2020-04-19 19/04/2019001D.JOTHI
eSimCritical Path Delay2020-04-17 17/04/2013501Namra_Riaz
eSimCircuit simulation project- PCB design2020-04-16 16/04/2015101sai_srika…
ScilabXCOS Second Order System with Imaginary Poles "Answer given for denominator is …2020-04-16 16/04/2015601Ansollis
eSimproject nsme2020-04-15 15/04/2013401lochan
PythonUsing Plot Command Interactively2020-04-14 14/04/2015901gandharv1…
ScilabScilab/Xcos undefined variable2020-04-11 11/04/2017401dollety
eSimhow to save a subckt2020-04-10 10/04/2017301lochan
eSimWhere to find library of most devices2020-04-08 08/04/2016901lochan
eSimNew installation procedure2020-04-08 08/04/2020401gryphonB2
PythonAbout certificate2020-04-07 07/04/2024601Gagana
Affordable-Laptopmicrophone sound not detected2020-04-05 05/04/2014501peeyushte…
Affordable-LaptopHard disk stops working2020-04-04 04/04/2012601sethbharat
eSimproblem esim-2.0 on ubuntu 18.042020-04-02 02/04/2020802ernottep
Affordable-LaptopVideo editor that works on affordable laptop2020-03-30 30/03/2013701sethbharat
ScilabRL Transient response2020-03-30 30/03/2017401mpnmeenu
DWSIMSyntheis/production of ammonium nitrate2020-03-26 26/03/2019101p0tterhead
ScilabExecuting file in other Software (FlexPDE)2020-03-24 24/03/2015800KopeSteff
ScilabScilab Gui axes object problem.2020-03-24 24/03/2017001bediaakbu…
PythonREGISTER FOR ONLINE QUIZ2020-03-23 23/03/2023701ANSHU
ScilabPrintf Format need the output for the Exponential value2020-03-23 23/03/2014802trulyajays
Scilabconcatenate two or more string from matrix2020-03-19 19/03/2015801GianGasto…
ScilabPossibility to create a process with tags connected to an OPC server.2020-03-10 10/03/2021701Toltchok
ScilabProblem with dynamic link2020-03-05 05/03/2020900Galandak.J
eSimhow to open esim2020-03-03 03/03/2024901mozammil
OpenFOAMMesh generation using blockMesh utility2020-03-02 02/03/2022105sourav0921
eSimplot error in esim2020-03-02 02/03/2022501kanhaiya@…
ScilabVibration acceleration enveloping for bearing fault detection2020-02-29 29/02/2015600AndrewYeu…
eSimHow to build/make an IC in eSim so it can be used in schematic via place compon…2020-02-27 27/02/2022902ashutosh2…
eSimI am trying to use a transformer in a circuit but error in esim simulation2020-02-26 26/02/2018402Dhruvajit
Scilabfft on simple plot2020-02-26 26/02/2019500will20fitz
OpenPLCChange of OS2020-02-25 25/02/2015801rosh81296
DWSIMFlowsheet proposal form submitted but one of the compounds to be used was left …2020-02-24 24/02/2032201proactiv13
eSimNsSpice plot not working2020-02-20 20/02/2018501muditgarg
DWSIMAmberlyst and sulfuric acid are not available in the list, how to proceed.2020-02-18 18/02/2020001proactiv13
ScilabData fitting leastsq vs. lsqrsolve, don't success to use lsqrsolve2020-02-18 18/02/2019200phoudha
RWant to learn R Programming for Data Science?2020-02-18 18/02/2020702vikrantra…
eSimNOT ABLE TO REGISTER AND SUBMIT2020-02-16 16/02/2027001SumithKum…
PythonBASIC PYTHON PROGRAMMING REGD2020-02-14 14/02/2023401sanjay13
PythonWhat is worth and cost of Artifical Intelligence?2020-02-10 10/02/2020501vaishnavi
ScilabDownload scilab on Mac2020-02-10 10/02/2015001Lili9500
eSimLM2596 component no present2020-02-09 09/02/2019801Sumanto
PythonUpgradation of a package2020-02-09 09/02/2014401GSMahapat…
Pythoni registered for the workshop to participate in that. and yesterday2020-02-08 08/02/2016401rishabhar…
Scilabset to visible2020-02-06 06/02/2016000KLL2784
ScilabData from Figure2020-02-05 05/02/2015200Aseem
ScilabUsing Scinotes and parfor2020-02-05 05/02/2014001butiki
RHow do you fix a programming error in R?2020-02-04 04/02/2016001evonmispe…
PythonHow to combine multiple (many) .txt files into one2020-02-04 04/02/2014401tyresebro1
RWhat are some good onlne courses for R Programming?2020-02-03 03/02/2013901Karen
ScilabOpening a text file in scilab2020-02-03 03/02/2016701butiki
eSimRegarding potentiometer2020-01-30 30/01/2019301aclab
eSimAstable Multivibrator using 555 timer2020-01-30 30/01/2023001sumathi_k
eSimReagrding adding AC source2020-01-29 29/01/2025001aclab
eSimAstable mutivibrator2020-01-29 29/01/2023401aclab
Pythonregarding python self learning course2020-01-26 26/01/2019901disha_kha…
Affordable-LaptopFIles and folders backup2020-01-19 19/01/2014401sethbharat
Scilab ToolboxFOSSEE Optimization Toolbox: Least squares problem call to fmincon does not wor…2020-01-18 18/01/2019301brant
DWSIMReaction manager in Mac os2020-01-18 18/01/2023401suratiapr…
ScilabCheck if x or y are eigenvectors of matrix A.2020-01-16 16/01/2016701praveenpk
PythonThe error message viewed at the beginning of Spyder32020-01-15 15/01/2017401GSMahapat…
Scilab ToolboxFOSSEE Optimization Toolbox: Least squares problem call to fmincon does not work2020-01-14 14/01/2016700brant
Scilab ToolboxI am having problems with the below code. It is a2020-01-14 14/01/2012000brant
ScilabPlease help me in solving the problem in scilab2020-01-14 14/01/2017401praveenpk
ScilabCould anyone please help me in solving the following problem2020-01-14 14/01/2014101praveenpk
eSimInstallation Error in NgSpice2020-01-14 14/01/2021201vishvendr…
ScilabUsing function datafit2020-01-14 14/01/2015101osantana
PythonError message in Spyder32020-01-13 13/01/2013201GSMahapat…
eSimError in grounding the circuit2020-01-12 12/01/2015401Aravinth_…
eSimERROR IN kicadtongspice convertor2020-01-12 12/01/2017901Aravinth_…
ScilabCan't import Matlab libraries2020-01-11 11/01/2016102vramirez
ScilabEquivalent function or procedure to Matlab's analoginput('winsound')2020-01-08 08/01/2020801osantana
FOSSEE LaptopAdministrator(root) password is not working2020-01-08 08/01/2013801mahesh464
ScilabHow else can I optimization this code?2020-01-08 08/01/2017901SwissMan
PythonEnrolment for course2019-12-24 24/12/1923301anujkyadav
PythonWhen will I be able to view the results (scores) of Advkvpython2019 Phase II Qu…2019-12-18 18/12/1915201vimalatho…
DWSIMError while opening "Open Python Script Editor"2019-12-06 06/12/1926001drmankarj…
Scilab ToolboxIt came from the same source code as Matlab2019-12-05 05/12/1921701JubinMenez
ScilabNeed help this matlab function into Scilab [fitobject,gof,output] = fit(x,y,fit…2019-12-05 05/12/1920101waqas.ahm…
DWSIMAutomation of compound separator2019-12-04 04/12/1922401drmankarj…
ScilabCatching data with pc audio card using Scilab and (or) Xcos2019-12-03 03/12/1920001osantana
eSimError in kicad to ngspice.2019-12-02 02/12/1923501stevenogg
PythonHow to download certificate after completion of the self learning python progra…2019-11-29 29/11/1937701Sujithcse
eSimhow to do AC analysis in eSim2019-11-27 27/11/1929104prakhar
PythonRestricted the input up to 8character2019-11-24 24/11/1919501kvandrews…
PythonKvadvance Python course2019-11-23 23/11/1920811kvandrews…
OpenFOAMConvergence problem in steady state simulation of centrifugal fan in openfoam2019-11-22 22/11/1944701rohanmaja…
OpenFOAMWhere to add new field while using dsmcfoam?2019-11-22 22/11/1937802kevin
ScilabInformation about .sci file2019-11-18 18/11/1924501Keerthi_v…
PythonPrerequisite Quiz could not attempted due to technical problem in kv advance co…2019-11-14 14/11/1920601jitinkohli
RIs it possible to index the data using two variables (while using indexing and …2019-11-09 09/11/1920701MandarKul…
OsdagDuring instalation found problem with miniconda and PyQt5 module2019-11-07 07/11/1922501jureko
ScilabIs it possible to input values from Excel directly into scilab?2019-11-03 03/11/1926402UltraEvil…
eSimUnable to add library2019-11-02 02/11/1929301arpitg
eSimMapping components footprints2019-11-02 02/11/1926801Aman_M
Affordable-LaptopProblem with the use of earphones2019-10-31 31/10/1929001Vikram
ScilabCan we give a link to Xcos examples from xcos.fossee.in?2019-10-30 30/10/1927601kannan
ScilabHow can I select variables in the Xcos SUPER_f-block mask-editor?2019-10-29 29/10/1941001louis.sch…
PythonWhen and where will the quiz scores and answer sheets shown...2019-10-26 26/10/1936801Ambily_Kr…
PythonWhen will I be able to view the results (scores) of kvpython2019 Phase I Quiz …2019-10-23 23/10/1923601vimalatho…
PythonView score of Python quiz regarding2019-10-22 22/10/1923801Benzi_R
PythonRegarding the Basics of Python Programming -KV August 20192019-10-20 20/10/1923401kvandrews…
Affordable-LaptopHDMI not working properly2019-10-17 17/10/1927103sethbharat
Scilabhow do I adjust the x y intercept?2019-10-15 15/10/1926701bonads
ScilabIs there any mathematical package available in SCILAB for Exponential integral …2019-10-14 14/10/1924501shuvenduj…
Scilab-ArduinoWhat do you guys think of SciLab to Ardunio?2019-10-14 14/10/1930700Redington
DWSIMUsing a custom compound2019-10-10 10/10/1932602Envoy467
Scilab-ArduinoWhat i am wanting to do is simple but I just2019-10-09 09/10/1934300BintuGomes
Scilabhow to get quad encoder in scilab2019-10-05 05/10/1929101sashanksa…
Scilabplot doesn't work2019-09-30 30/09/1936601toto1
PythonBasic of python programming kv August 20192019-09-22 22/09/1943901nishantra…
eSimConnectors for Astable Multivibrator2019-09-21 21/09/1929801Ravikiran…
ScilabSliding Window2019-09-21 21/09/1927902hoon07
eSimNot able to run this software. Tried installing it many times. Could you please…2019-09-21 21/09/1932501shafaz
eSimFootprint window open but last column will not be displayed2019-09-21 21/09/1923302revansidh
eSimfoot prints appropriate for my selected components2019-09-21 21/09/1926101venky4004
eSimREGARDING OUTPUT2019-09-21 21/09/1924003akhilesh
eSimDo the participants of the workshop need to upload the results2019-09-21 21/09/1922401janibasha
eSimAssignment for getting certificate of esim workshop2019-09-21 21/09/1926401gaurav.na…
eSimDifferent between eSim_NPN and BC5472019-09-21 21/09/1926702khinphyot…
eSimError in python plotting2019-09-21 21/09/1926602aparna.ma…
eSimUnable to shows kicad to ngspice successfully conversion message window2019-09-21 21/09/1921201revansidh
eSimerror message occured while simulation2019-09-21 21/09/1925301dhara.pra…
eSimUnable to get DC analysis2019-09-21 21/09/1922801pramod.s1…
eSimError Message while simulation2019-09-21 21/09/1924802sdshabbie…
eSimThe project does not contain any Kicad netlist file for conversion.2019-09-21 21/09/1925701Lakshmi@1…
eSimError occured after simulation2019-09-21 21/09/1922001drbvvsati…
eSimhow to search a specific components for a typical circuit design2019-09-21 21/09/1922301potdar.bi…
eSimesim application to electrical engineering2019-09-21 21/09/1926202g.srinivas
eSimpython version2019-09-21 21/09/1921901dae1948
eSimeSim installation issues2019-09-20 20/09/1928501sebin
eSimcVpcb takes long time to open or it keeps loading2019-09-20 20/09/1920001sebin
ScilabPlot a single vector.2019-09-20 20/09/1924401Ironmaniac
eSimElectrical Rule Check2019-09-20 20/09/1935802Devibhaga…
Affordable-LaptopUpdate not installed - not signed?2019-09-20 20/09/19239018gaitonde
eSimi am not able to connect wire to components2019-09-19 19/09/1920301BUNTYJATT
Affordable-LaptopHow to disable KDE wallet manager2019-09-19 19/09/1933701sethbharat
eSimUnable to create new project file2019-09-18 18/09/1931301Zapper20
eSimUnable to perform simulation for astable multivibrator2019-09-18 18/09/1922401Mrunalini
DWSIMCAPE-OPEN Unit Operations2019-09-17 17/09/1940602phani4cts
DWSIMHow to add a Component Splitter2019-09-17 17/09/1938901phani4cts
eSimCvPcb error, May be our institute proxy blocking the CvPCb2019-09-17 17/09/1922001janibasha
PythonHow to complete a module in an enrolled course.2019-09-17 17/09/1924001manojkv
Pythonipython_Error2019-09-16 16/09/1930201indrajit6…
Affordable-LaptopForgot laptop password2019-09-16 16/09/1921502deepakgup…
eSimError in kicad to ngspice2019-09-15 15/09/1924501ankit@21
eSimunable to perform simulation2019-09-14 14/09/1923601janibasha
OpenFOAMError: Pcorr goes to nan. (Diverging)2019-09-12 12/09/1928002Rohan_Sri…
Affordable-LaptopNot able to setup wifi possibly because sudo does not work2019-09-12 12/09/1924702sethbharat
Pythonkv pyhthon 20192019-09-12 12/09/1922401ruchijain
PythonREGARDING STUDY MATERIAL IN PENDRIVES FOR Basics Of Python Programming - KV Aug…2019-09-12 12/09/1925801ruchijain
ScilabRaspberry Pi with Scilab2019-09-12 12/09/1963101BR_Bruno
eSimnew spoken tutorials on Astable multivibrator are not appearing2019-09-11 11/09/1925302janibasha
Affordable-LaptopBengali and Sanskrit transliteration in Affordable Laptop2019-09-10 10/09/1922502Dipgo
Pythonkvpython19 course2019-09-10 10/09/1926101m_rohilla
eSimhow to select IC5552019-09-09 09/09/1922302revansidh
PythonPROBLEM WITH QUIZ2019-09-08 08/09/1921201agrorahul
eSimTo Draw Overlapped Track on PCB2019-09-06 06/09/1920501sunilshah
eSimUrgent: Problem Facing during installation of esim in mint-18 linux OS2019-09-05 05/09/1921303pinkeshpa…
eSimhow to get the transfer characters of JFET or MOSFET2019-09-05 05/09/1920502anupamash…
ScilabLegends for Polar Plot2019-09-04 04/09/1933802SharathDi…
ScilabTextbook companion project review2019-09-04 04/09/1927901Keerthi_v…
eSimfacing a problem to install a esim setup2019-08-31 31/08/1924501ankit@21
eSimSoftware crash2019-08-31 31/08/1927101Zapper20
OpenFOAMHelp me choose MFEM vs deal_ii2019-08-29 29/08/1926301jeff12
ScilabLoad sqlite Textfile into Matlab.2019-08-28 28/08/1926801TheGlenli…
eSimErrors descriptions and remedies2019-08-26 26/08/1925701rupeshdub…
eSimSource details not appearing2019-08-25 25/08/1927001rupeshdub…
Affordable-LaptopChromecast on Linux2019-08-23 23/08/1924901dadas
PythonAnimated social contagion graph2019-08-19 19/08/1928901terry131
Affordable-LaptopRegarding Linux synaptic package manager2019-08-18 18/08/1929101sebin
eSimhow to find input characteristics of BJT CE config2019-08-16 16/08/1939304anupamash…
OpenFOAMChoosing appropriate boundary conditions for turbulent quantities2019-08-13 13/08/1929701razon1312…
eSimKi- Ng conversion is not happening and the plot files .V files are not availabl…2019-08-12 12/08/1921901anupamash…
eSimInput output characteristics of Common emitter configuration2019-08-12 12/08/1926501anupamash…
FOSSEE LaptopFossee Laptop2019-08-08 08/08/1926300bbgy4
Scilabproblem loading a .sav2019-08-06 06/08/1927301ersoule
eSimwhile converting kicad to ngspice, it is ap[pearing as "Your schematic contain …2019-08-06 06/08/1926401deviM
eSimIoT simulation2019-08-04 04/08/1927601anoop.eg
Scilabfailure of some of the simulations of "demo" in XCOS2019-08-03 03/08/1942201shweta
Affordable-LaptopIs playing PC game on affordable laptop riskyyy ?????2019-08-02 02/08/1928401leoly111
eSimwhen i submit the hardware assignment it will not attach my file of zip 1182.ra…2019-08-02 02/08/1928501revansidh
eSimit gives python error also while selecting device modeling parameter led libra…2019-08-02 02/08/1925101revansidh
eSimWhen we will start to registration of other faculty for main workshop which wil…2019-08-02 02/08/1938201revansidh
eSimIs it necessary to submit astable multivibrator Gerber file.2019-08-02 02/08/1928801revansidh
eSimWhen assign simulation parameter in kicad to spice conversion and when click on…2019-08-02 02/08/1927501revansidh
eSimHow to submit the coordinator assignment using hardware kit for esim2019-07-31 31/07/1932903deviM
eSimHow to submit the assignment for esim2019-07-31 31/07/1928301deviM
Affordable-LaptopRecovry from hung computer2019-07-30 30/07/1926802sethbharat
eSimWhat are the steps design pcb for multilayer?2019-07-29 29/07/1923501revansidh
eSimHow to design pcb for multilayer?2019-07-29 29/07/1925101revansidh
eSimError while opening Python plotting editor, so unable to simulate2019-07-29 29/07/1937501bncetrcc1…
DWSIMchemicals and thermodynamic2019-07-28 28/07/1935001@azharmohd
Affordable-Laptopdata processing2019-07-28 28/07/1921701prarthjeet
eSimRegarding project files present in virtual machine2019-07-27 27/07/1929201sebin
eSimerror , not able to see source details2019-07-27 27/07/1928801sesidhar
eSimconvert kicad to ngspice2019-07-27 27/07/1926901vbhujade
eSimnot proper output2019-07-27 27/07/1924301shaista.k…
eSimError in opening existing project2019-07-27 27/07/1923801Sufi8118
eSimError which doesnot open my project file.2019-07-27 27/07/1927301indrajit1…
eSimki-Ng convertion not happening2019-07-27 27/07/1924701chalapath…
eSimregarding : Error2019-07-27 27/07/1926301bvanand
eSimdevice modelling tab empty2019-07-27 27/07/1927601probeer.s…
eSimregrading package2019-07-27 27/07/1924101chjayaram
eSimpython plot ouput missing2019-07-27 27/07/1928201shaista.k…
eSimsimulation output is not getting2019-07-27 27/07/1926101anoop.eg
eSimsimulation can't complete2019-07-27 27/07/1927101travindra
eSimComponent values dialog box will not get open2019-07-27 27/07/1922601conquista…
eSimhow to solve error 32019-07-27 27/07/1925502anoop.eg
eSimRegarding selection of footprints2019-07-27 27/07/1923501sebin
eSimIn kicadtongspice conversion, source details are not appearing2019-07-27 27/07/1925201janibasha
eSimRegarding Astable Vibrator output2019-07-27 27/07/1922101conquista…
eSimDuring Simulation the below error is showing2019-07-27 27/07/1926001manoj1313
eSimerror while simmulation2019-07-27 27/07/1921501sesidhar
eSimsir i am unable to simulate please help, getting these errors2019-07-27 27/07/1924901sesidhar
eSimunable to simulate the circuit output2019-07-27 27/07/1921702madhurak
eSimIssue with viewing OUT22019-07-27 27/07/1923801sebin
eSimerror(5) Power Flag2019-07-27 27/07/1922901gopikrish…
eSimafter placing the power flag2019-07-27 27/07/1922501travindra
eSimMultiple item C1(unit1)2019-07-27 27/07/1917801manishara…
eSimeSim wkhp 2019 task22019-07-27 27/07/1923401probeer.s…
eSimConflict problem between pin security.2019-07-27 27/07/1927501revansidh
eSimerror type2 information2019-07-27 27/07/1924301gubbanave…
eSimfor ERC error2019-07-27 27/07/1925002travindra
eSimSir what is the assignment need to be submitted in esim after making the connec…2019-07-27 27/07/1928501deviM
eSimWire connection regd2019-07-27 27/07/1921001Devibhaga…
eSimConnection of Global label connection2019-07-27 27/07/1921101pushpbit
eSimcomponent placement2019-07-27 27/07/1920601rajusastra
eSimCircuit regd2019-07-27 27/07/1922601Devibhaga…
eSimPlease explain what to do with the hardware I have received2019-07-27 27/07/1919101deviM
eSimPLEASE EXPLAIN ABOUT THE ASSIGNMENT TITLE I NEED TO COMPLETE TODAY2019-07-27 27/07/1923701deviM
Pythonenrollment for next python course2019-07-23 23/07/1924401rittick
FOSSEE LaptopHelp to restore external USB hard disk2019-07-19 19/07/1922100sethbharat
eSimSchematic contains unknown model2019-07-16 16/07/1923901manishara…
eSimPin Not connected2019-07-15 15/07/1926701manish.sh…
eSimopenprojectfile() takes only a single file name2019-07-15 15/07/1924801manishara…
OpenFOAMMultiple AMI, decreasing time step.2019-07-15 15/07/1935401sg_03
eSimeSim_devices not showing at the time of schematic...2019-07-14 14/07/1924611sharadjag…
eSimIssue in eSim Project2019-07-14 14/07/1927301nwyawahare
eSimlibrary for lm555n in CvPcb window2019-07-13 13/07/1927901janibasha
eSimProject Submission2019-07-12 12/07/1925002samkarthik
eSimFoot Print Mapping2019-07-12 12/07/1925901samkarthik
eSimNot able to select any footprint2019-07-12 12/07/1926001vishalppa…
eSimSetting parameters for PCB2019-07-12 12/07/1922201vishalppa…
eSimError while Simulating2019-07-12 12/07/1923501samkarthik
eSimafter reading netlist footprint error occur2019-07-12 12/07/1922901ashishrag…
eSimschematic of the assignment eSIM not run(RC code:1263)2019-07-12 12/07/1920701subha983@
eSimregarding connection of components RC10632019-07-12 12/07/1921501shahaji18…
eSimCouldn't able to find out the footprint for v2, v32019-07-12 12/07/1927101chalapath…
eSimError while doing schematic Creation2019-07-11 11/07/1926901samkarthik
eSimRegarding CvPCB2019-07-11 11/07/1923001shaista.k…
eSimerror while opening phython plotting editor2019-07-11 11/07/1924101ashishrag…
eSimPayment process for eSim coordinators workshop 27 july 192019-07-10 10/07/1924401rbbhamare
eSimCvPCB does not read Footprints2019-07-10 10/07/1925401madhurak
eSim1182 uploaded successfully for footprint of lm741 i follow the same with 7805 i…2019-07-10 10/07/1923801revansidh
eSimProject File Name2019-07-10 10/07/1925701sanjay.bh…
DWSIM.ERROR IN POWER CALC OF PUMP2019-07-09 09/07/1929701kristandon
eSimWhen convert kicad to Ng it shows a window of unknown model lm_7412019-07-09 09/07/1924601revansidh
eSimWhile checking electrical rules it gives error at input and output label where …2019-07-09 09/07/1926402revansidh
eSimLm741 this component is not appeared under eSim_Devices so what is a solution …2019-07-08 08/07/1928501revansidh
eSimafter generation of gerber file then save it and when i type ctr+alt+T that win…2019-07-08 08/07/1925501revansidh
eSimeSim Coordinator Workshop Assignment Submission2019-07-08 08/07/1926502rbbhamare
eSimRegarding eSim Coordinator Workshop Assignment Submission2019-07-07 07/07/1924801rbbhamare
eSimProblem in Selection of Lm_7412019-07-07 07/07/1926101pushpbit
eSimMapping components with footprints and also onwords all video is not playing …2019-07-06 06/07/1925701revansidh
eSimMapping components with footprints this video is not played in spoken tutorial …2019-07-06 06/07/1923401revansidh
eSimRegarding Uploading of Assignment-RC No-14842019-07-06 06/07/1926001navjot.16…
eSimLM_741 is not available in eSim_Subckt filter2019-07-05 05/07/1926702bvsjaipur
eSimError During Simulation of Circuit in eSim2019-07-04 04/07/1927301navjot.16…
eSimError During Simulation of Circuit2019-07-04 04/07/1923701navjot.16…
Affordable-LaptopIssues with Wi-Fi2019-07-04 04/07/1927803prarthjeet
ScilabImplementasi ImageDataStore funtion In Scilab2019-07-04 04/07/1932601ariev_arc…
eSimInstallation of esim(Python Package issue)2019-07-03 03/07/1925401Shmscetam…
Scilabparticipants are not received online certificate2019-07-03 03/07/1930401gopal@1972
Affordable-LaptopCould you help us to get affordable Laptops to our college RC ID:14722019-07-03 03/07/1927202gopal@1972
Affordable-LaptopMy RC NO.1472, We haven't received any LAPTOPS from IIT-B2019-07-03 03/07/1924201gopal@1972
eSimMy RC NO.14722019-07-03 03/07/1929401gopal@1972
eSimAssignment is tough and after watching spoken tutorial morethan three times no…2019-07-02 02/07/1936603bvsjaipur
eSimI hope the Assignment 2 is attached instead of assignment 12019-07-02 02/07/1937203gopal@1972
Affordable-LaptopOperating System2019-07-01 01/07/1923801SriVidhya
DWSIMNot responding error2019-06-29 29/06/1932504Nimisha
OpenFOAMInlet Velocity2019-06-28 28/06/1938002moghimi49…
ScilabXCOS MASKED SUPERBLOCK EDITOR2019-06-27 27/06/1936902danielhar…
DWSIMError while accessing compounds2019-06-26 26/06/1932501Paritosh
ScilabLeft shift operaion and combining 3char to form an int value2019-06-26 26/06/1929701Likhitha_…
Pythonunable to download certificate for may course2019-06-25 25/06/1927501mbhush303
Affordable-LaptopI want to transfer my data from windows pc to debian laptop2019-06-24 24/06/1926502saiplanner
ScilabpyImport -scipython2019-06-20 20/06/1936201sneha
ScilabProblems with Image on GUI2019-06-18 18/06/1935201Josiane
ScilabRead several csv files2019-06-18 18/06/1932301AnimalA
ScilabPerformance between Windows and Linux2019-06-14 14/06/1940601pbies
eSiminstallation2019-06-12 12/06/1930201bvnr_s
Affordable-LaptopAC adapter for the affordable laptop2019-06-12 12/06/1923301sethbharat
ScilabScilab to xcos and xcos to scilab communication2019-06-12 12/06/1938001GirijaB
ScilabDependency file in scilab2019-06-10 10/06/1931401Keerthi_v…
ScilabPlotting problem2019-06-07 07/06/1935101minio373
ScilabUsing Clear Command in Examples with Dependency Code(s) - TBC Review2019-06-04 04/06/1930602Parmanand…
eSimSchematic contain unknown model "inv2x"2019-06-01 01/06/1932702Kunal
PythonPython enrollment2019-06-01 01/06/1928801Prikshit
DWSIMR.O desalination2019-05-17 17/05/1940901kavin
DWSIMCustom modeler2019-05-17 17/05/1938601kavin
eSimWhen trying to convert kicad to ngspice it is showing "your schematic contain u…2019-05-08 08/05/1939501bhanuprak…
ScilabCandycrush code2019-05-07 07/05/1958501luisdri
ScilabScilab/Matlab Problem.2019-05-05 05/05/1947901cassar
ScilabRegarding Symbolic Tool Box2019-05-05 05/05/1934801piratlasr…
ScilabRegarding TBC on Scilab2019-05-04 04/05/1944106trulyajays
Scilabhow to work on scilab2019-05-04 04/05/1939402Venkatara…
ScilabHow to use scilab2019-05-04 04/05/1936001Venkatara…
Scilabregarding data sets2019-05-04 04/05/1934301gusha
Scilabscilab doubt2019-05-04 04/05/1936402ravi2544
ScilabScilab codes and its results will be allowed to quote in publications, if i am …2019-05-04 04/05/1936701Sathya
Scilabhalf wave rectifier model execution problem2019-05-03 03/05/1948101venkatana…
DWSIMclassic extractive distillation with 2 simple columns,  with water, ethanol and…2019-04-29 29/04/1943401SvenderMa…
DWSIMNot able to download the codes for Textbook Companion Project2019-04-24 24/04/1939601tangli666
Scilabusing cameras with Scilab and IPCV2019-04-10 10/04/1941101egge_d
PythonHow to keep the proxy setup active till the end of execution2019-04-10 10/04/1932601tutu10
PythonWhere to submit screening task2019-03-31 31/03/1941601Sajag
Pythonunable to attempt quiz62019-03-31 31/03/1934701Amrutha
ScilabApplying Filters to signals2019-03-28 28/03/1955201lgunseor
DWSIMReaction manager2019-03-26 26/03/1963001Aybiee
FOSSEE Laptophow to uninstall debian and install windows 102019-03-26 26/03/1931600monojgoya…
Affordable-LaptopThe 1 Tb hard disk is automatically de-mounting2019-03-25 25/03/1935701saiplanner
Affordable-LaptopUnable to access update files for off-line update2019-03-22 22/03/1931101sethbharat
ScilabMODULUS in XCOS2019-03-20 20/03/1946702raghu7862
PythonPython fossee fellowship reexam2019-03-19 19/03/1941501rushic24
eSimunable to use esim_pspice library components2019-03-18 18/03/1939001Malli
OpenModelicaNot installed on macos2019-03-16 16/03/1937401amol_gp
Affordable-LaptopI want to install Linux into my hard disk instead of Flash Drive, How can I do …2019-03-13 13/03/1934501Kishan
DWSIMequillibrium reactor2019-03-12 12/03/1962302madhur14
eSimAbout changing the course2019-03-09 09/03/1937802angadiroh…
eSimabsence of component in library2019-03-08 08/03/1942901shivanshu
PythonSelf Learning Course March/April 20192019-03-06 06/03/1942102meeraj
ScilabHelp a newbie; How to implement an equation?2019-03-05 05/03/1943001Throwaway
eSimIC subcircuit cannot found2019-03-04 04/03/1941901angadiroh…
Osdag2D views- report creation2019-03-04 04/03/1949401nandanam1
PythonSelf Workshop2019-03-02 02/03/1937903shweta_k
ScilabBuild a Band-pass Butterworth Filter2019-02-27 27/02/1943301UnknowStu…
ScilabORIGINALITY OF EXAMPLES2019-02-25 25/02/1942601prankurti…
eSimError while opening python plotting Editor. Please look at console for details2019-02-24 24/02/1957601KatakamBh…
Affordable-LaptopWPS Office installation in Thinbook 13102019-02-22 22/02/1943403mahesh464
ScilabCreate Xcos block with string parameter2019-02-14 14/02/1950101dagomar
ScilabHow to plot with 2 vector as horizontal axis.2019-02-13 13/02/1943402yanfanbl
RWhat after registraion?2019-02-13 13/02/1966702dishanisen
eSimCan not run the eSim software in Windows.2019-02-07 07/02/1953501ANNESYA_B…
OpenFOAMNo creation of processed files even after running.2019-02-06 06/02/1943301Rohan_Sri…
Affordable-LaptopNot able to hear sound2019-02-02 02/02/1959001sethbharat
eSimCan you provide the link for eSim installation for Windows 8?2019-02-01 01/02/1948101Subhashini
ScilabExample Naming Convention2019-01-30 30/01/1952902Parmanand…
RBook proposal category2019-01-30 30/01/1959801MBhubanand
eSimHow to change the working directory of eSim?2019-01-30 30/01/1951602Subhashini
ScilabQuery regarding XCOS Super_f block2019-01-24 24/01/1954701vamsi7862
Scilabpolar graph : invisible axis2019-01-17 17/01/1941801Bilaz38
eSimSISO Experiment2019-01-15 15/01/1951801priyachet…
Affordable-LaptopAugmenting memory2019-01-15 15/01/1942201Manoj
eSimError in simulating the circuit12019-01-14 14/01/1948201priyachet…
eSimError in simulating the circuit2019-01-11 11/01/1957701priyachet…
DWSIMIssues related to DWSIM in mac2019-01-08 08/01/1957001viggi08
eSimWhere is eSim windows installer available?2019-01-08 08/01/1919301SJith
eSimsimulation error2019-01-07 07/01/1964205priyachet…
Affordable-LaptopReminna Remote connection in Debian Thinbook and RDP connection from Windows PC2019-01-05 05/01/1966902mahesh464
ScilabAbout Xcos project2019-01-02 02/01/1951101CBChoudha…
ScilabBook proposal2019-01-02 02/01/1947401CBChoudha…
Scilab'syms' function2018-12-29 29/12/1866801Akhtar
PythonQuiz-6 -- Unable to continue2018-12-28 28/12/1844801Bhaghyesh
PythonPractice data structures_exercise_question_82018-12-26 26/12/1845201Bhaghyesh
DWSIMupload user define compound2018-12-23 23/12/1850201mehul09
ScilabEquivalent function for heaviside in scilab2018-12-20 20/12/18121001Akhtar
DWSIMDWSIM Wastewater treatment process2018-12-20 20/12/1863601Shubhashi…
ScilabI sent a book proposal some days before . I made mistakes in proposal .I want t…2018-12-18 18/12/1850501CBChoudha…
Affordable-Laptopnetwork connectivity2018-12-18 18/12/18189011rucha
Scilab Toolboximage processing functions are not responding2018-12-18 18/12/1850302Yogin
OpenFOAMChoosing exact boundary conditions2018-12-18 18/12/1855101razon1312…
ScilabGet state vectors of state space block during simulation2018-12-17 17/12/1844303alexandru
OpenFOAMRegarding Proposal2018-12-17 17/12/1844801chetantho…
OpenFOAMQuery regarding heat flux boundary condition in OpenFOAM2018-12-16 16/12/1844801gikkutom
Affordable-LaptopUnable to connect laptop with smart tv2018-12-15 15/12/1847002SadasivamM
Affordable-LaptopMalfunctioning of the laptop2018-12-15 15/12/1839801Priya_siv…
OpenFOAMHeat flux boundary condition in OpenFOAM2018-12-15 15/12/18126701gikkutom
Affordable-Laptopkdenlive app image was working fine - now freeze in timeline, position marker a…2018-12-10 10/12/1842301ranipv
eSimReverse Characteristics of Diode2018-12-08 08/12/1854301Gloria
eSimCurrent source in eSim2018-12-08 08/12/1847601Gloria
Affordable-LaptopVLC MEDIA PLAYER2018-12-07 07/12/1840301GSMahapat…
Affordable-LaptopUninstallation2018-12-07 07/12/1839611GSMahapat…
eSimInstallation of eSim software2018-12-06 06/12/1856802SAI14
Affordable-Laptopmissing qt and wxt terminals from gnuplot 5.2.52018-12-06 06/12/1867006ranipv
DWSIMProblem with "Valve"2018-12-05 05/12/1857503ferbg
ScilabProcessor in Loop, Hardware in Loop etc.2018-12-04 04/12/1871501dalaylama
DWSIMfind the enthalpy in python script2018-12-04 04/12/1851501mehul09
Affordable-LaptopIssue with offline update 32018-11-28 28/11/1844901manojkuma…
eSimSoftware download2018-11-28 28/11/1857001sweety
Affordable-LaptopError occured while updating the System2018-11-27 27/11/1848701JitendraB…
Affordable-LaptopEven after installing updates 2 and 3 the issue persist2018-11-26 26/11/1850901Jothi
Affordable-LaptopISO file of OS(Debian)2018-11-26 26/11/1849602JitendraB…
eSimUnable to find esim installer2018-11-26 26/11/1848501Prakash14
Affordable-LaptopDisk space (won't let me post unless title is longer than 12 characters, hence …2018-11-25 25/11/1862001Manoj
Affordable-LaptopLED above F3 key2018-11-24 24/11/1850102Manoj
ScilabHow to use the oscilloscope?2018-11-23 23/11/1853401Batmano
DWSIMRigourous Distillation column error with image file2018-11-21 21/11/1865701DoshiVarun
Affordable-LaptopNo LAN Port to the device. How can I use LAN wired connections to this Machine?…2018-11-21 21/11/1844203balupp
Affordable-Laptopunable todetect sd card2018-11-15 15/11/1842601peeyushte…
Affordable-LaptopProblem with Voice Record2018-11-15 15/11/1845101laxman-cs
Affordable-LaptopRegarding Devanagari Typing2018-11-15 15/11/1842211Vikram
Affordable-LaptopProblem with WiFi connection2018-11-15 15/11/1855602Vikram
Affordable-LaptopWEBCAM app: Videos inaccessible2018-11-15 15/11/1843802sumedha_m…
Affordable-LaptopInaccessible Hard disk2018-11-15 15/11/1837701sumedha_m…
Affordable-LaptopBattery Drainage2018-11-12 12/11/1835201Kishan
OpenFOAMBoundary condition at inlet2018-11-11 11/11/1863702sourav0921
Affordable-LaptopTo update Windows 10 software version in Linux OS (Thinbook)2018-11-04 04/11/1857101christoph…
Affordable-LaptopCan not play vedio2018-11-03 03/11/1844411Dr_kalpana
DWSIMerror in a kinetic reaction2018-11-01 01/11/1859301mehul09
Scilabwave synthesis analysis using laplace transform2018-10-31 31/10/1858701priyadars…
Affordable-LaptopAffordable laptop with Hard disk2018-10-31 31/10/1863713dadas
Affordable-LaptopUBS Port not functioning2018-10-31 31/10/1849811sharma49
Affordable-LaptopNo stereo sound2018-10-31 31/10/1841512b4balu
ScilabMoving average2018-10-26 26/10/18104601Noiser1234
Affordable-LaptopSound not working!2018-10-26 26/10/1843111mohamed.ld
Scilabcsim message "Excessive work done on this call"2018-10-26 26/10/1873401felipetoz…
ScilabData import from clipboard2018-10-25 25/10/183740202Noiser1234
ScilabString Handling in Scilab Xcos V5.5.22018-10-17 17/10/1860101Poornacha…
ScilabDifferent tasks PLEASE HELP2018-10-14 14/10/18426701joosep
eSimpcbnew layout straight to ngspice?2018-10-08 08/10/1858601coupsdeba…
DWSIMerror in LLE ternary graph utility2018-10-08 08/10/1871002mehul09
Scilabscetoexe not working2018-10-05 05/10/1860601anupam
eSimNot able to open examples in esim, its showing " The system cannot find the spe…2018-10-01 01/10/1852801nsnairtvm
eSimUnable to proceed with Setup program2018-09-30 30/09/1845701ksmk31
OpenFOAMFoam::error::printStack(Foam::Ostream&) at ??:?2018-09-27 27/09/18154501razon1312…
OpenFOAMContinuity error cannot be removed by adjusting the outflow.2018-09-19 19/09/18162101razon1312…
ScilabVoronoi Diagrams2018-09-17 17/09/1859502ritu_2306
DWSIMdoubt regarding reaction furnace and condenser2018-09-15 15/09/1857501rajat
Pythonlinspace is not found . i have window 32 bit. plz help me out .2018-09-15 15/09/1841101sushma
ScilabWhat is algebraic Loop? When it Occurs in Xcos? How to Overcome it?2018-08-31 31/08/18150401arundsona…
ScilabRegarding Scilab commands xcorr2018-08-29 29/08/1851501Ajay
DWSIMError in stichiometry2018-08-24 24/08/1860803drmankarj…
DWSIMSimulation of process model for n number of data points or observations2018-08-24 24/08/1854101drmankarj…
DWSIMDevelopment of graphical user interface in Excel2018-08-24 24/08/1854501drmankarj…
eSimwhile opening the schematic window this error occur?2018-08-13 13/08/1861401durairajm…
ScilabSet logarithmic scale in Sgrayplot2018-08-02 02/08/1858501Matias
DWSIMabout flowsheet submission2018-07-29 29/07/1871501mehul09
PythonThe circulate.zip error2018-07-27 27/07/1849801prateekvy…
FOSSEE LaptopFOSSEE OS linke is down2018-07-23 23/07/1854001mrf3
DWSIMabout a scrubber design2018-07-22 22/07/1879201mehul09
DWSIMPipe unit operation2018-07-14 14/07/1861701Rick63
OpenFOAMConvergence in Open Foam Simulation2018-07-13 13/07/1857301ben
DWSIMAbout internship's forms2018-07-05 05/07/1860911mehul09
OpenFOAMSalome bentpipe to OpenFOAM2018-07-02 02/07/1861701Happys5
SBHSWhat is Error while running the Python based "run" file ?2018-06-29 29/06/1854601Moh005
PythonRegarding quiz 62018-06-27 27/06/1851001Akash_1998
Scilaba general forum question2018-06-25 25/06/1893401maxcy
Scilabfunction return2018-06-25 25/06/1852705maxcy
ScilabSciLab 6.0.1 and Symbolic Toolbox2018-06-25 25/06/18113802kamienna.…
DWSIMSimulating a condensor2018-06-24 24/06/1866501Aftab
Scilabtutorial 15 not working2018-06-23 23/06/1856200maxcy
ScilabDouble integration by Scilab2018-06-21 21/06/1875301gu0813421…
DWSIMPython Documentation For DWSIM2018-06-21 21/06/1883501ParaK
ScilabFFT processing block in XCOS2018-06-21 21/06/18117401shrinivas…
DWSIMBubble Column Reactor Substitute2018-06-20 20/06/1863501ParaK
ScilabGet all the file name of a directory in a list2018-06-19 19/06/1852301sarahi
Scilabdebugger acting screwy2018-06-19 19/06/1849500maxcy
ScilabI am finding it difficult to interpret this graph2018-06-18 18/06/1854300chandrash…
Scilabmore debugger questions2018-06-18 18/06/1855001maxcy
ScilabTemperature Distribution in a Square2018-06-17 17/06/1858901Karthik
Scilabprint Question2018-06-17 17/06/1849401maxcy
ScilabGaussian Elimination Tutorial again2018-06-17 17/06/1850700maxcy
Scilabposting question from the tutorial link doesn't work2018-06-17 17/06/1859101maxcy
Scilabdebugging a tutorial example2018-06-17 17/06/1894002maxcy
Scilabplotting a deff2018-06-16 16/06/1846301maxcy
Scilabhow to check if a random process in wss in scilab2018-06-16 16/06/1851201chandrash…
Scilabdebugging SciLab examples2018-06-15 15/06/1856401maxcy
Scilabdeveloping in SciLab2018-06-15 15/06/1847301maxcy
ScilabGaussian Elimination Tutorial2018-06-14 14/06/1893000maxcy
Scilabscilab posting question2018-06-14 14/06/1859601maxcy
Scilabspoken_tutorial site2018-06-11 11/06/1850601maxcy
ScilabMAC, can´t write to a file2018-06-10 10/06/1858401ot
eSimquestion and answer list out of date?2018-06-07 07/06/1849001johnCrobi…
ScilabScilab - Ballistic problem2018-06-05 05/06/1856500Yetem
eSimwhen I download eSim installer for windows Norton secrity rejects it2018-06-04 04/06/1852801johnCrobi…
DWSIMCompound not available2018-06-01 01/06/1862101Hemanand
DWSIMhelp about vinyl chloride2018-05-28 28/05/1852601M_A_P
DWSIMCrude Desalter Simulator2018-05-27 27/05/1860401vbs305
DWSIMseparator column in compound separater2018-05-26 26/05/1853201bheemesh
DWSIMfixing the output data for a given problem2018-05-26 26/05/1849901bheemesh
Scilab ToolboxChecking stationarity of a random process2018-05-26 26/05/1848101chandrash…
ScilabUnable to install FOSSEE Optimisation toolbox2018-05-25 25/05/1866401arian
ScilabHow to find inverse laplace transform in scilab2018-05-24 24/05/18142101chandrash…
PythonError in print statement2018-05-22 22/05/1842301manavsara…
Scilabscale of axes2018-05-22 22/05/1854901RudiLehn
DWSIMConversion reactor2018-05-22 22/05/1862204srwasan
DWSIMUNIQUAC package with default flash doesnot converge.2018-05-18 18/05/1860903teja9006
OpenFOAMUsing multiInteraction type patchInteractionModel2018-05-16 16/05/1865301surajiitk
eSimlooking for a VCO component2018-05-15 15/05/1847901cuichi
ScilabScilab-Isosurfaces2018-05-03 03/05/1854301lacastelos
ScilabHelp Scilab Isosurfaces2018-05-03 03/05/1850201lacastelos
ScilabIsosurfaces Scilab2018-05-03 03/05/1857801lacastelos
ScilabIsosurfaces - Help Scilab2018-05-03 03/05/1857401lacastelos
ScilabHow to do range filter of image??2018-05-02 02/05/1858301anil_mca4
ScilabHow do I retrieve a file from scilab that seems like it has been deleted?2018-04-28 28/04/1851801frida
ScilabError installing symbolic toolbox2018-04-25 25/04/1867501dhruvpalr…
DWSIMBrine evaporation in DWSIM2018-04-21 21/04/1861201nagarajka…
PythonRegarding review of given question2018-04-18 18/04/1847801darpitkau…
Scilabvery poor .pdf file2018-04-11 11/04/1851303maxcy
Scilabcompile and run is screwed up2018-04-11 11/04/1855002maxcy
eSimproblem with the analysis tab2018-04-06 06/04/1854501nivedita
ScilabMux/Demux vs Bus 22018-04-05 05/04/1854701Antonio
ScilabMux/Demux vs Bus2018-04-05 05/04/1863901Antonio
Pythonregarding task submision2018-04-04 04/04/1854302saitejmad…
DWSIMRegarding adding compuonds in DWSIM2018-04-04 04/04/18122401Priyam_Na…
DWSIMAbout unit operations in DWSIM2018-04-03 03/04/1867501Parth
OsdagOSDAG installation problem2018-04-02 02/04/1861201Yallamand…
Pythonhow to download certficate2018-03-31 31/03/1857901dharmesh7
eSimYour schematic contain unknown model lm317at2018-03-31 31/03/1867101sainathan…
Pythoncan miss any quiz generate problem in issue the certificate2018-03-30 30/03/1847001Abhi9839
ScilabCPGE MODULE Bode parms2018-03-30 30/03/1866701AVISHVAk
Pythoncan't attempt the quiz 52018-03-30 30/03/1850401Bhargavi
Pythoncan't attempt the quiz 62018-03-30 30/03/1846301Tulasi
eSimError while plotting python plot editor. How do i rectify it?2018-03-29 29/03/1860701Sushmitha
eSimAbout Kicad library2018-03-29 29/03/1857401PoonamCha…
Pythonmistakenly opened the quiz 12018-03-29 29/03/1851801dharmesh7
PythonQuize3 ragarding assignment submission #2018-03-28 28/03/1846801tejesh002
eSimkey error in source2018-03-28 28/03/1860301kavyadaya…
Osdagosdag is not opening2018-03-27 27/03/1863001sohilreddy
OsdagError while installation2018-03-26 26/03/1859401mokaeswar
PythonError in downloading certicate2018-03-25 25/03/1852701chetan_g
eSimHow to load components library2018-03-24 24/03/1860801ArshadRah…
eSimError while opening python plotting Editor. Please look at console for more det…2018-03-23 23/03/1866702SravaniIn…
Scilabhow to identify exe file in Scilab2018-03-23 23/03/1857002padmavati
Scilab ToolboxOctave Interface Toolbox not installing (FOSSEE 2018 Fellowship)2018-03-23 23/03/1846701a_Xiu
eSimShows that schematic contains unknown model2018-03-23 23/03/1858101VSKhamank…
Osdagexample.osi file not opening2018-03-22 22/03/1859101Subrata_1…
OsdagLAUNCHING OSDAG2018-03-22 22/03/1877302Hoshil_Pa…
eSimERROR: Your schematic contain unknown model jfet_n_pspice2018-03-22 22/03/1863402SravaniIn…
DWSIMCATALYST is not present2018-03-22 22/03/1869702e.santosh
eSimabout coding2018-03-21 21/03/1854801PoonamCha…
eSimWhy esim software is closing after few seconds after installing it2018-03-20 20/03/1860401ArshadRah…
OsdagThis is a Test Question for OSDAG2018-03-19 19/03/1860501user100
PythonDoes The yaksh course BPPY is availble Through out the year?2018-03-19 19/03/1883101dave
eSimerror while opening python plotting editor2018-03-19 19/03/1872601Mayankb23
ScilabScilab 2C toolbox2018-03-19 19/03/1863501Akhil
eSimComponents missing in " Choose Component "2018-03-19 19/03/1857101Mayankb23
Scilabwhat is this toolbox2018-03-18 18/03/1852201maxcy
Scilabwindows version of scimax2018-03-18 18/03/1863401maxcy
Scilabcompiling from scilab2018-03-18 18/03/1865302maxcy
eSimUnable to load all the components in the respective libraries2018-03-18 18/03/1854901SravaniIn…
Python'linspace' not defined in canopy editor2018-03-17 17/03/18174801ankurrj5xe
Scilab ToolboxError while installing ocatave interface toolbox, required for DSP toolbox2018-03-17 17/03/1850201iakashp
eSimUnable to create a project2018-03-17 17/03/1882401SravaniIn…
eSimError in project creation2018-03-17 17/03/1863301Udit
eSimerror while opening a schematic2018-03-16 16/03/1859701vaishnavi…
eSimesim source i am not able to access2018-03-16 16/03/1861401ELDHO_SOY
eSimerror with source detail2018-03-16 16/03/1858301shubhpriya
Pythoni have a list assume 10 data in the list. If i want to remove number 3 to 8 dat…2018-03-16 16/03/1846101jitendra
Scilabcall_scilab help file questions2018-03-16 16/03/1856400maxcy
Osdagosdag software not opening2018-03-15 15/03/1893101Subrata_1…
ScilabDesign of fir filters using windowing technique2018-03-14 14/03/1868300chandrash…
PythonWhere can I find the data files and images required for the course?2018-03-13 13/03/1867901anuragr
eSimua741 pin details2018-03-13 13/03/1857402ashish
eSimAll the components are not downloaded.2018-03-12 12/03/1858401gaytripra…
PythonWhere can i found Python course?2018-03-12 12/03/1850702marmikp58…
eSimerror: dos not contain any kicad netlist file for conversion2018-03-12 12/03/1867001shubhpriya
Scilabscilab and linux2018-03-11 11/03/1867401maxcy
Pythonimport error2018-03-11 11/03/1847001tharunare…
Scilab Toolboxlinux and Scilab2018-03-10 10/03/1856201maxcy
PythonInterface to submit questions.2018-03-09 09/03/1868601shubhansh…
ScilabScilab Symbolic Toolbox2018-03-09 09/03/18193402maxcy
Scilabatoms toolbox and syms2018-03-08 08/03/1867800maxcy
OpenFOAMWhy Initial residual is not equal to the final residual obtained from the previ…2018-03-07 07/03/1896601ankur_garg
eSimcannot open project2018-03-07 07/03/1876903agrahara
eSimissue regarding number of ports2018-03-05 05/03/1857301anudeepbo…
ScilabConvolutional Neural Network2018-03-05 05/03/1881001advait
Scilabis the cloud working2018-03-05 05/03/1857601maxcy
Scilabevans code example not working2018-03-05 05/03/1870901maxcy
eSimPython plotting missing2018-03-04 04/03/1862601sounndarr…
Scilabwhat is syms and how does it affect the code2018-03-04 04/03/18222302maxcy
Scilabsgrid from definition example2018-03-03 03/03/1855401maxcy
eSimNot able to start up the schematics.2018-03-03 03/03/1861301bunty.him
Scilabrerunning cloud code2018-03-03 03/03/1859101maxcy
Scilaba warning message2018-03-03 03/03/1867201maxcy
Scilabimporting .sce file2018-03-03 03/03/1876902maxcy
eSimCannot find 'eSim_' files in the components library2018-03-02 02/03/1856901rishabhsm…
Scilabwhy do we plot digital filter spectrum on 0 - 0.5 only2018-03-02 02/03/1859101chandrash…
Scilabxgrid() is a no show2018-03-02 02/03/1859402maxcy
Scilabcopying code doesn't wotk2018-03-01 01/03/1859202maxcy
ScilabConvolutional Neural Network using the Caffe model2018-03-01 01/03/1867000advait
eSimsimulation problem in cmos inverter2018-03-01 01/03/1859502ajinkya_b…
eSimCan't seem to create a new project2018-03-01 01/03/1871402rishabhsm…
Scilabcsim coding question2018-03-01 01/03/1853701maxcy
Scilabcloud book examples not working2018-02-28 28/02/1866801maxcy
Scilabroot locus code from scilab book2018-02-28 28/02/18127302maxcy
Pythoncanopy not available2018-02-28 28/02/1845001HarishSin…
Scilabroot locus problem2018-02-28 28/02/1860504maxcy
Scilabroot locus example problem2018-02-28 28/02/1855201maxcy
Scilabevans example problem2018-02-28 28/02/1854501maxcy
Scilabevans example problem2018-02-28 28/02/1855201maxcy
Scilabevans example problem2018-02-28 28/02/1854601maxcy
DWSIMDehydration Plant Simulation2018-02-27 27/02/1855602HaareshAu…
ScilabReview duration2018-02-27 27/02/1853101dhruvpalr…
eSimSquare wave in eSim2018-02-27 27/02/1859402ajinkya_b…
Scilabmatrix operator2018-02-24 24/02/1859604maxcy
eSimNon available componant2018-02-24 24/02/1852201jrangaraj…
Scilabcode syntax question from example code2018-02-23 23/02/1857402maxcy
FOSSEE LaptopDIFFICULTY IN INSTALLING AND RUNNING OPTIMIZATION TOOL BOX2018-02-23 23/02/1848401varadaraj…
ScilabAlternate instruction in scilab for filtic in matlab2018-02-23 23/02/1884201Raji
Scilabcode syntax question2018-02-22 22/02/1856202maxcy
ScilabMatlab equivalent2018-02-21 21/02/1874503maxcy
eSimUNKNOWN MODEL-lm555n2018-02-20 20/02/1859301shekhar
DWSIMDehydration Plant2018-02-19 19/02/1865001HaareshAu…
ScilabCan anyone help me figure out how to work with microdaq2018-02-16 16/02/1865301chandrash…
eSimtransient analysis2018-02-16 16/02/1867102sounndarr…
Scilabsetup GUI home page2018-02-16 16/02/1857302maxcy
Scilab ToolboxFOSSEE optimization toolbox does not load under Scilab 5.5.2/Windows 72018-02-12 12/02/1853102mottelet
Scilab-Arduinonot able to open the icon2018-02-10 10/02/1861402nilashri
Scilabregarding XCOS2018-02-10 10/02/1857002nilashri
eSimPython plot error-reg2018-02-05 05/02/1872702Jeevashub…
eSimWaveform generation2018-02-05 05/02/1860401KarthikaK
eSimvcc supply-reg2018-02-04 04/02/1859601Jeevashub…
DWSIMProble with opening DWSIM file into software2018-02-02 02/02/1878101sbdongare
eSimno python plot2018-01-26 26/01/1859601sounndarr…
DWSIMKinetic reaction2018-01-21 21/01/1865801Divyansh_…
eSimcommand not found2018-01-14 14/01/1876001sounndarr…
DWSIMRigorous Distillation2018-01-12 12/01/1885601Divyansh_…
DWSIMPFR step size error2018-01-11 11/01/1864401Rutuaj24
eSimhow to open a new project?2018-01-10 10/01/1872701VENKATTAP…
eSimPython Plot error2018-01-07 07/01/1871801shefali04
ScilabWorking with scilab (DSP Lab) and Texas instruments dsp processor2018-01-05 05/01/18130202chandrash…
eSimWhat exactly eSim is?2018-01-04 04/01/1858402siddheshc…
FOSSEE Laptopliblapack.so.3gf2018-01-03 03/01/1859101ulima
DWSIMDisplaying reaction results2017-12-31 31/12/1760601Divyansh_…
eSimHow to give inputs to the IC's2017-12-28 28/12/1770601A.Karthik
eSimHow to set a Path?2017-12-27 27/12/1763602VENKATTAP…
eSimHow to work with This Software in Laptop?2017-12-27 27/12/1760303VENKATTAP…
ScilabProblem with visualisatioin of output of chebyshev type one filter.2017-12-24 24/12/1766201chandrash…
DWSIMcan you suggest me the solution for the error I'm getting while designing metha…2017-12-22 22/12/1770101Harshali
Scilabinput function is behaving in a inconsist function2017-12-20 20/12/17167401chandrash…
eSimunable to give title of the project.2017-12-20 20/12/1761702A.Karthik
ScilabProblem with input command in scilab for reading mulitiple data2017-12-20 20/12/1757901chandrash…
Scilab2d graph. Powers of a variable.2017-12-16 16/12/1762911Abbas
ScilabProblem with design of iir lpf filter.2017-12-15 15/12/1761701chandrash…
eSimpython plotting error and global label error2017-12-15 15/12/1785301Vignesh
eSimesim installation problem2017-12-13 13/12/17136618shekhar
eSimgraphical error2017-12-12 12/12/1760402sounndarr…
eSimunable to use eSim sources2017-12-09 09/12/1781702amolbedar…
ScilabProblem in visualistion of the output2017-12-09 09/12/1763201chandrash…
ScilabProblem installing Scilab 6.0 on ubuntu 16.04 LTS2017-12-06 06/12/1777501chandrash…
ScilabSteps to install scimax toolbox on Scilab2017-12-06 06/12/1776001sudip.26
eSimconversion error, unknown component2017-12-02 02/12/1773403sounndarr…
ScilabFIR Filter design2017-12-01 01/12/1760201Akhtar
ScilabProblem finding the DFT of the sequence as the length of sequence increases2017-11-30 30/11/17176601chandrash…
OpenFOAMLooking for Solver for Three Phase Heat Transfer with phase change for Cryogeni…2017-11-29 29/11/1772301arezes
ScilabN point FFT calculation2017-11-28 28/11/1766001chandrash…
OpenFOAMResource persons for OPENFOAM Software.2017-11-22 22/11/1768001thprasads
eSimProblem in opening the schematic window after double clicking the esim icon.2017-11-15 15/11/1781614kksundari…
Scilabproblem matrix dimension2017-11-13 13/11/1763501Timmy
ScilabThe Weierstrass-Mandelbrot curve2017-11-12 12/11/1770301Deniro
eSimsteps to do after getting an approved mail2017-11-11 11/11/1757601AKSHAYA
eSimerror while using thyristor.2017-11-09 09/11/1771602sheena
eSimCircuit Rules check error in Gnd2017-11-07 07/11/1763001Gokul
eSimfinding input signal2017-11-06 06/11/1767101sounndarr…
eSimerror in ERC2017-11-06 06/11/1771307sounndarr…
ScilabWeiner kinchin relation code2017-11-06 06/11/1778301chandrash…
eSim'plot_data_i.txt' and 'plot_data_v.txt' files cannot be created. why is this ha…2017-11-04 04/11/1777803sheena
eSimerror while simulating the schematic.2017-11-02 02/11/1769902sheena
DWSIMDWSIM for membrane separation2017-10-30 30/10/17112301faya
OpenModelicaModelling a Spark Plug for simulation project.2017-10-30 30/10/1766001Leong
eSimabstract submission2017-10-28 28/10/1766001KarthikSr…
eSimCIRCUIT SIMULATION PROPOSAL FORM SUBMIT ERROR2017-10-24 24/10/1775602CHETAN1994
eSimlast date for circuit simulation2017-10-23 23/10/1766501sounndarr…
eSimComponents not Available2017-10-20 20/10/1767801dharm_007
eSimhow to simulate 555 timer based astable multivibrator with esim?2017-10-19 19/10/1795302anil
eSimLaunching esim on my pc.2017-10-18 18/10/1757605Telegenic
eSimproiect name error2017-10-18 18/10/1765201Abhilash_…
Scilab ToolboxA Missing Block (OTA) in Xcos tool box2017-10-16 16/10/1755401NarayanaK…
Scilab ToolboxIs a PHARMACY background STUDENT can develop a TCB2017-10-13 13/10/1750311prashant8…
ScilabHOW TO USE SCILAB FOR PHARMACY EDUCATION REGARDING ACTION AND REACTION OF CHEMI…2017-10-13 13/10/1761201prashant8…
PythonIs a computer background student can develop a TCB2017-10-13 13/10/1765801Anjusiva
eSimproposal form2017-10-11 11/10/1770301sjitm
eSimwhere can i find a 3-phase ac source.2017-10-10 10/10/1765601Abhinay123
eSimProposal Form for circuit simulation project.2017-10-09 09/10/17129901Abhinay123
DWSIMDownloading the Tutorials2017-10-03 03/10/1779501akash.son…
DWSIMIssue in DWSIM Software Installation2017-10-02 02/10/1786101akash.son…
ScilabGlitch in Scilab version 62017-09-17 17/09/1772801prnaren
DWSIMThree phase open-source library2017-09-13 13/09/1772901simon
DWSIMThree phase library open-source2017-09-13 13/09/1776701simon
DWSIMcan we use DWSIM for simulutions for a spray or rotay drier systems2017-09-07 07/09/1788001bhagathra…
OpenFOAMdiffusivity directional variables2017-08-30 30/08/1784301ashok
ScilabStand alone exe. from Scilab 6.0.02017-08-24 24/08/1788201antony
Scilab ToolboxInstallation problem2017-08-19 19/08/1763101SRS24
ScilabInverted graph2017-08-19 19/08/1766601rajeshbm
Pythonunable to install canopy2017-08-18 18/08/1769601ulfa
ScilabCommands: syms, laplace, ilaplace2017-08-15 15/08/17246501ojumut
DWSIMinternship details2017-08-14 14/08/1770701goyalakash
OpenFOAMchange of volume inside pipe2017-08-11 11/08/1780703ashok
Scilabinput problem2017-08-11 11/08/17150301jsant100
DWSIMRegarding Submission of flow sheet and its deadline.2017-08-07 07/08/1774301miral
eSimhai friends caan any one resolve the problem attached in images?2017-08-05 05/08/1764401mahesh
ScilabIncorrect polynomial operations?2017-08-04 04/08/1768401leohpaz
ScilabCan't convert old diagram (problem in version) while using To Workspace (xcos)2017-08-02 02/08/1773001leohpaz
OpenFOAMOpenFOAM Issue with Porous Media and Buoyancy2017-08-02 02/08/17364801rudhkul
Scilab Toolboxexample problem required for understanding.2017-07-31 31/07/1767201ravinder.…
DWSIMAssigning operating pressure for distillation column2017-07-27 27/07/1786001mbali20
ScilabParticleLabeling with IPCV toolbox command imlabel2017-07-26 26/07/1774701Hackmet
ScilabQuery regarding submission of code2017-07-20 20/07/1767801amitkumar…
ScilabIs it possible convert a PSPICE code to scilab code?2017-07-17 17/07/1776401amitkumar…
OpenFOAMvertical loading in interfoam2017-07-11 11/07/1775401hsai1991
OpenFOAMConvergence while using icoFoam2017-07-06 06/07/1787001ankur_garg
eSimUnable to load footprints while opening CvPcb2017-07-05 05/07/17109902HARISHBHAT
eSimUnable to map footprints2017-07-04 04/07/1773302HARISHBHAT
OpenFOAMSimulation Of Flow over cylinder with forward splitter plate2017-07-03 03/07/1775501maheshtom
ScilabImage in GUI2017-07-03 03/07/1779601jayati
eSimUNABLE TO INSTALL IN UBUNTU16.04 LTS2017-06-28 28/06/1772901mahesh
ScilabLab Migration Proposal2017-06-19 19/06/1771701dimple
ScilabProblem with xls_link Scilab tool2017-06-16 16/06/1773401MrWhite10
eSimCan't install eSim 1.1.2 on Ubuntu 162017-06-12 12/06/1779603pldissana…
OpenFOAMOpenFOAM-1.6.x Installation Error2017-06-07 07/06/1781501Samarendra
Scilabhttps://help.scilab.org/ not working2017-06-06 06/06/1795002ramprasad…
ScilabDubugging in Scilab2017-06-06 06/06/1779202ramprasad…
SBHSError while running program2017-06-01 01/06/1778401lalitchau…
ScilabImage processing performance2017-05-31 31/05/1776602Hackmet
Pythonhow to join the course2017-05-27 27/05/1773301anjU
Scilab ToolboxBlob Detection and Analysis2017-05-22 22/05/1769002teju5531
ScilabScilab problem2017-05-22 22/05/1775201skitlesas
ScilabScilab task problem2017-05-22 22/05/1775001skitlesas
ScilabNeed help with scilab task2017-05-21 21/05/1774301skitlesas
eSimeSim ibraries missing2017-05-20 20/05/1766401Franky
OpenFOAMDynamic Moving Mesh2017-05-20 20/05/1775501Samarendra
OpenFOAMHow to Create Baffles in Geometry2017-05-17 17/05/172307-11ankur_garg
Scilabscilab version 6 related problem2017-05-17 17/05/1781101ruchisingh
eSimPassing option to ngspice2017-05-15 15/05/1771702buleks
DWSIMstep size becomes too small error in plug flow reactor2017-05-14 14/05/1791501Nikhil
DWSIMdouble clicking not opening main editing window2017-05-12 12/05/1776201Nikhil
Scilab"Abort" command in Scilab 6.0.02017-05-08 08/05/17148702Hackmet
Scilabimage processing error in scilab2017-05-05 05/05/1776902gowtham22…
ScilabSample source file in book proposal form2017-05-05 05/05/1769901amitkumar…
ScilabError while opening scilab.2017-05-03 03/05/17124701gowtham22…
Scilabproblem with the opening environment window.2017-05-01 01/05/1784802GVP
DWSIMMulti component Distillation2017-04-25 25/04/17115501RajatSuva…
OpenFOAMHow to create a internal gate?2017-04-25 25/04/17114501hsai1991
OpenFOAMCannot find flow at bottom surface_slump test2017-04-25 25/04/1783404ashok
OpenFOAMplotting at a definite point2017-04-14 14/04/1791001SUBHANKAR
OpenFOAMgetting time-average flow fields within certain time interval2017-04-09 09/04/17141501SUBHANKAR
OpenModelicaHOW TO APPROACH MULTIBODY SYSTEM IN OPEN MODELICA2017-04-07 07/04/1774402DURAISAMY
ScilabQuestion for plotting 2D2017-04-05 05/04/17272603chanyau11…
OpenFOAMplotting skin friction coefficient2017-04-03 03/04/17194001SUBHANKAR
OpenFOAMlaminar separation bubble2017-04-02 02/04/1770501SUBHANKAR
OpenFOAMSnappyHexMesh Tutorial2017-04-01 01/04/17110301ankur_garg
Scilabxcos - rfile_f - input format2017-03-31 31/03/17128101ebike_dev
ScilabHow to define variable for a matrix?2017-03-29 29/03/1777701emerson.g…
OpenFOAMpressure plot in paraFoam2017-03-27 27/03/17159701SUBHANKAR
eSimError trying to create schematic (Ubuntu running under Win10)2017-03-24 24/03/17233106lreni
eSimngspice not running in eSim2017-03-22 22/03/1784104RG190564
eSimWarning at starting eSim and error at calling ngspice2017-03-21 21/03/1777601RG190564
DWSIMUnbalanced equation2017-03-19 19/03/1781302nas.fiq
Scilabscilab simulation error 21; Invalid index.2017-03-18 18/03/17305501adiblhf
Scilabsimulation problem2017-03-17 17/03/1782901adiblhf
eSimSOFTWARE IS NOT WORKING2017-03-17 17/03/1786801ajitsingh
OpenFOAMpost-processing in paraview2017-03-10 10/03/17124901SUBHANKAR
DWSIMDWSIM components2017-03-08 08/03/17103502nirbhay13…
OpenFOAMHow to find/call each individual cell in a computational domain2017-03-08 08/03/17255403sarojdip
ScilabSimulation of pipe flow2017-03-01 01/03/1781501jasvinder
Scilab ToolboxImage read and display problem2017-02-24 24/02/17105101ramansast…
eSimQuery Related Esim2017-02-24 24/02/1772101Sunil4u
FOSSEE LaptopTest Question2017-02-23 23/02/1763501test
ScilabVelocity profile2017-02-16 16/02/1768901jasvinder
Scilab Toolboxplease specify the complete detailed instruction of installing scilab symbolic …2017-02-10 10/02/1771301dhatta
Scilab2D Lookup Table: How to do it??2017-02-07 07/02/17122602Prof.X
ScilabCompile call_scilab in c++ using Eclipse IDE Helios Service Release 22017-02-04 04/02/1790901phamish20…
Scilabscilab cloud2017-02-03 03/02/1793903girishl
SBHSMachine ID 62017-02-03 03/02/1774701140020009
ScilabQUESTION IS x(t)=exp(a*t) while a>12017-01-26 26/01/1794711dhatta
OpenFOAMmultiPhaseEulerFoam case running issue..2017-01-17 17/01/17120301sarojdip
OpenFOAMBasic queries regarding cad, mesh and sim2017-01-16 16/01/1784802Rawnap07
ScilabXcos Block Wizard2017-01-16 16/01/17107301Shigeru
DWSIMRECYCLE STREAM2017-01-10 10/01/17151101thubelihle
ScilabHow to load file .dat with true variable name2017-01-07 07/01/17214203dafri
Scilabusage of scilab2016-12-30 30/12/16110201lipikasar…
DWSIMSIMULATION inquiry2016-12-29 29/12/1685202thubelihle
Scilabplot crashes using scf under Xubuntu2016-12-28 28/12/1677701sebf
ScilabsciFLT toolbox - Unable to load block from...2016-12-25 25/12/16121101DLakomy
DWSIMHEAT EXCHANGER2016-12-04 04/12/16112201thubelihle
DWSIMOPEN SOURCE APPLICATION2016-12-03 03/12/1687905thubelihle
DWSIMFLASH DRUM SEPARATOR2016-12-03 03/12/1698401thubelihle
ScilabXcos: an equivalent simulink palette2016-12-01 01/12/1696301Naiara
eSimnot getting frequency response2016-11-26 26/11/1676301bibek
eSimnot fetting correct result2016-11-24 24/11/1675501bibek
OpenFOAMpost-processing problem2016-11-23 23/11/16114001SUBHANKAR
eSimNor getting coorrect output for a clamper circuit2016-11-23 23/11/1691201bibek
ScilabIPD BlobStatistics2016-11-22 22/11/1677101AllenMar
ScilabHow to install E4coder in Scilab2016-11-22 22/11/1683701Mohamed
ScilabAdding a non-numerical header for a text file of numerical column values in Sci…2016-11-21 21/11/16102301Farhan
ScilabCombining two text files to one in Scilab2016-11-21 21/11/1690201Farhan
OpenFOAMproblem in results2016-11-21 21/11/1686502SUBHANKAR
ScilabfscanfMat in GUI (PushButton)2016-11-18 18/11/1687702Hackmet
ScilabfscanfMat via PushButton?2016-11-18 18/11/1683101Hackmet
eSimNot getting the correct Python plot2016-11-18 18/11/1683601bibek
Scilabmaking a circle looking like a circle2016-11-16 16/11/16191102moon61
ScilabHelp required in running a C program in scilab2016-11-16 16/11/16140306Vijay_Kar…
eSimeSim on BOSS Linux (anoop)2016-11-14 14/11/1679801madhan
ScilabPlotting coordinates2016-11-11 11/11/1678601AllenMar
ScilabRandom binary sequence generator2016-11-10 10/11/1698201ashutumho
ScilabImplementing Matlab function in scilab2016-11-10 10/11/1686801Nisha
ScilabBitBucket Repo2016-11-09 09/11/1674901Anuradha
ScilabCACSD toolbox install2016-11-06 06/11/1685101Survinder…
OpenFOAMopenfoam to firefoam throuh paraview?2016-11-01 01/11/16142803francesco…
OpenFOAMNo vortex shedding2016-10-31 31/10/1689601SUBHANKAR
ScilabHow to install scilab communication toolbox for Scilab 5.5.12016-10-29 29/10/1690601kavyamano…
ScilabHow to draw gear profile.2016-10-26 26/10/1688301Prashant05
OpenFOAMparaview tools2016-10-21 21/10/1695301SUBHANKAR
OpenFOAMerror while running a solver2016-10-13 13/10/16491001SUBHANKAR
OpenFOAMSurfaceTracking2016-10-06 06/10/1693701Arahata
eSimSimulation not working. Error while opening phyton plotting editor2016-09-29 29/09/1685801memobecer…
eSimSimulation not working2016-09-29 29/09/1680901memobecer…
OpenFOAMboundary condition2016-09-26 26/09/1680201SUBHANKAR
OpenFOAMplotting the residuals2016-08-23 23/08/16188801SUBHANKAR
eSimdc analysis reg2016-08-18 18/08/1676101krishna
OpenFOAMplotting in paraview2016-08-16 16/08/1686702SUBHANKAR
eSimRun setup2016-08-08 08/08/16156701Shubham
eSimDC Analysis _reg2016-08-04 04/08/16105702krishna
OpenFOAMco-efficient of drag and lift2016-08-03 03/08/16105704SUBHANKAR
OpenFOAMopemFoam2016-08-02 02/08/16102302mrinal
Scilabsivp TOOLBOX2016-07-22 22/07/16153306amol_gp
eSimerror while opening python plotting error2016-07-21 21/07/16104401Ramu
OpenFOAMPROBLEM2016-07-21 21/07/16104501SUBHANKAR
Scilabunable to install SIVP2016-07-20 20/07/16119001amish
eSimUnable to install eSim on Ubuntu2016-07-19 19/07/16107801Ramu
eSimInjecting noise2016-07-16 16/07/16107001dangel
eSimexecution error reg2016-07-13 13/07/1698601krishna
ScilabScimax - Scilab Symbolic Toolbox2016-07-12 12/07/16222404gsanchit1…
eSimExecution reg2016-07-11 11/07/16100603krishna
eSimregarding Lab migration project2016-07-09 09/07/1696901bjena
ScilabScilab Xcos2016-07-06 06/07/16195301jalpa
ScilabScilab 5.5.2 - Xcos2016-07-06 06/07/16379505jalpa
eSimpython plotting window does not open up (On latest build of eSim)2016-06-26 26/06/16121303kavyamano…
eSiminstallation reg2016-06-24 24/06/16106901krishna
OpenFOAMblockmeshdict file2016-06-23 23/06/16106901SUBHANKAR
ScilabSCILAB certification2016-06-22 22/06/16124901miniranis
ScilabSCILAB code for lotka voltera model2016-06-19 19/06/16112801amol_gp
ScilabNumerical Linearization (CACSD tool)2016-06-15 15/06/16113103madhan
OpenFOAMWriting blockMeshDict file2016-06-14 14/06/16106801SUBHANKAR
eSimeSim not working in windows 102016-06-06 06/06/16115201dangel
eSimundetaking form2016-05-31 31/05/1697201bjena
eSimesim training on skype2016-05-31 31/05/1698301bjena
DWSIMNew Compound Creator Study2016-05-26 26/05/16218301akashbt
OpenFOAMobject inspector menu in paraview2016-05-25 25/05/16128101SUBHANKAR
ScilabAnswer format in scilab2016-05-16 16/05/16180801nihalbisen
OpenFOAMTROUBLE IN SIMULATION2016-05-15 15/05/16130602SUBHANKAR
OpenFOAMSimulation of Euler-lagrangian bubble using OpenFOAM2016-05-11 11/05/16172502anirbanmo…
OpenFOAMOPENFOAM IN WINDOWS2016-05-10 10/05/16142201SUBHANKAR
eSimProblem in getting started with eSim2016-05-06 06/05/16123002jebi
ScilabError in graphic plot2016-05-03 03/05/16125201mipeli
DWSIMHow to install and run DWSIM on MAC AIR?2016-04-25 25/04/16143702dprao
ScilabDebug a function plot2016-04-25 25/04/16240504rinkley
OpenFOAMHow to plot a graph in Open foam2016-04-24 24/04/16192301KVK
eSimproblem in creating project2016-04-23 23/04/16109501teny
DWSIMCreating component hypothetically2016-04-22 22/04/16326302krunal
ScilabReading a wav file2016-04-21 21/04/16128402Muralikri…
eSimscilab contourf plot axis scaling2016-04-06 06/04/16117501max0924051
Scilabscilab plot contourf2016-03-31 31/03/16135103max0924051
eSimincorect ac simulaton2016-03-29 29/03/161046011mikimous…
eSimeSim Eeschema Diode component problem.2016-03-24 24/03/16126701Winderson
eSimunable to simulate dc power supply2016-03-23 23/03/16104301ankush
eSimImpossibilité de créer un subcircuit.2016-03-22 22/03/16108801jptt
eSimImpossibilité de créer un subcircuit.2016-03-22 22/03/16102703jptt
OpenFOAMError in Turbulence Solver2016-03-18 18/03/16647806KVK
eSimEnable to find AC voltage source2016-03-15 15/03/16263202ankush
Scilabplot sin(x)/x2016-03-14 14/03/16154002RudiLehn
OpenFOAMSimulation error (delta T is decreasing while the iterations are being carried …2016-03-13 13/03/16551705KVK
FOSSEE LaptopCost and postal charge2016-03-11 11/03/16125401arasu
eSimInstallation error2016-03-10 10/03/16155001alex
Scilabsurf color with OS X2016-03-06 06/03/16113203RudiLehn
eSimTesting Forum Reply2016-03-01 01/03/161194011fahim
eSimUnable to get details of source2016-03-01 01/03/16124105ankush
ScilabVehicle Count2016-02-27 27/02/16144301chinnur010
DWSIMEquilibrium reactor simulation2016-02-26 26/02/16427002Parul_sah…
eSimRegarding footprint2016-02-25 25/02/16102703pankaj
Scilabreading dcm images - error2016-02-16 16/02/16141701dr.cs1973
Scilabmpi in scilab2016-02-14 14/02/16120201Vadim
FOSSEE LaptopHindi Typing Layout2016-02-13 13/02/1687102sai
FOSSEE LaptopKiwix - Offline Wikipedia2016-02-11 11/02/1681601sai
DWSIMTextbook companion project2016-02-10 10/02/16118702vigneshve…
Scilabdrop2016-02-10 10/02/16119503JeniVenit
Python"syms" not taking help!2016-02-09 09/02/1697401rishabhra…
eSimUnable to run the simulation2016-02-09 09/02/16122004balu.eee2…
eSimError while opening python plotting Editor.2016-02-05 05/02/16128404yogi
FOSSEE Laptopfeatures of laptop2016-01-29 29/01/1694402janabhask…
eSimlab migration programe2016-01-29 29/01/16108701janabhask…
ScilabFlood fill Operation in Scilab2016-01-20 20/01/16187501saraths
eSimunable to install e sim on linux2016-01-18 18/01/16110001yogi
eSimunable to install e sim on linux2016-01-18 18/01/16117801yogi
eSimGetting errors when simulating the basic logic gates2016-01-18 18/01/16114001abaruah
eSimSimulation of basic logic gates2016-01-18 18/01/16107301abaruah
eSimSimulation of basic logic gates2016-01-18 18/01/16171503abaruah
eSimError while openinf python plotting Editor2016-01-18 18/01/16119302abaruah
FOSSEE Laptopaudio-video recorded by kazam2016-01-14 14/01/1672702sai
eSimabout istallation on ubuntu2016-01-11 11/01/16107401yesmahi
ScilabHow to make and display calculation Table using scilab.2016-01-11 11/01/16386001taneja
FOSSEE Laptopoffline wikipedia2016-01-09 09/01/1677101sai
ScilabSolution provided in book is wrong2016-01-06 06/01/16127601taneja
ScilabShould answer in book exactly match the one from your code.2016-01-05 05/01/16124602taneja
DWSIMConversion of Reaction2016-01-04 04/01/16156201maniktheg…
FOSSEE LaptopHow can I get Fossee Laptop2016-01-01 01/01/1678701shridhar_…
DWSIMUnavailability of compounds in Database2015-12-24 24/12/15189202Y.K.Aravi…
DWSIMTEXTBOOK COMPANION INTERNSHIP2015-12-23 23/12/15120301maniktheg…
ScilabWavelet transform in scilab2015-12-12 12/12/15246902aseemsr
eSimRight pane of footprint editor is empty2015-11-25 25/11/15121601kavyamano…
eSimI am unable to Install eSim software.2015-11-25 25/11/15126401balu.eee2…
eSimRegarding IN/OUT pin configuration2015-11-06 06/11/15120202upk345
eSimunable to add LM741 subcircuit2015-11-04 04/11/15132502sunitha
eSimConduction of workshop regarding2015-10-31 31/10/15104601boomaeeef…
Osdagmazhar2015-10-27 27/10/1596302mazhar
eSimunable to open esim source to place sine wave2015-10-25 25/10/15110202muqeeth
eSimEsim Not supported in Windows10-Reg2015-10-24 24/10/15116901srimaky
eSimunable to create project2015-10-24 24/10/151821-12muqeeth
eSimHow to plot voltage Vs current through a diode (Diode chara.)2015-10-23 23/10/15165704kavyamano…
eSimProblem regarding current direction.2015-10-21 21/10/15104201samre1234
eSimhow to measure resistance2015-10-21 21/10/15100401samre1234
DWSIMTransient simulations and Stream wise report2015-10-21 21/10/15150601prnaren
eSimMeasurement of resistance in eSim.2015-10-18 18/10/1595101samre1234
eSimTo measure and plot the branch current.2015-10-16 16/10/15111001samre1234
eSimInstallation with Windows2015-10-15 15/10/15127902srinaths
FOSSEE Laptopbrightness decreases after 10-15 seconds2015-10-15 15/10/1580101Deepak
eSimError while opening python plotting editor.2015-10-14 14/10/15118302samre1234
eSimAPR33A32015-10-08 08/10/15108201Swetha
eSimyour schematic contains an unknown component vplot8_12015-09-26 26/09/15160301samre1234
eSimYour schematic contain unknown model tl0722015-09-22 22/09/15127301Ebardie
eSimWIndows installation2015-09-22 22/09/15145603Ebardie
FOSSEE Laptopmouse pad and LAN2015-09-20 20/09/1577901150100063
FOSSEE Laptopunable to download flash player2015-09-15 15/09/1583201Deepak
FOSSEE Laptopmouse pad + keybord2015-09-14 14/09/1575801Jogendra
FOSSEE Laptopregarding password2015-09-14 14/09/1577101150260019
SandhiWhile creating up counter block in python getting following erros at cmake2015-09-08 08/09/15105111Ashwini
SandhiWhile generating up counter block getting following error at cmake2015-09-08 08/09/1587401Ashwini
Sandhisandhi installation error2015-09-03 03/09/1590901Ashwini
Sandhi"Sandhi" installation2015-09-03 03/09/1589101Ashwini
OpenFOAMcharger making sparking like noise2015-08-31 31/08/15105801150020063
SandhiError Message2015-08-31 31/08/1594102Ashwini
FOSSEE Laptopkeyboard2015-08-26 26/08/1590601bittu
FOSSEE LaptopHotspot2015-08-25 25/08/1585602akshaykha…
SandhiWay to create block in Python2015-08-24 24/08/15126401Ashwini
FOSSEE LaptopInternet not working through lan cable2015-08-23 23/08/1581302akshaykha…
FOSSEE Laptopcamera2015-08-23 23/08/1579001Deepak
SandhiBy default it is taking C++ language.Why not asking for language?2015-08-13 13/08/1591701Ashwini
Sandhiwhile running make command I am getting following error2015-08-06 06/08/1593200Ashwini
Scilab-ArduinoError while executing exec loader.sce2015-08-05 05/08/15139902kinitrupti
Scilab-Arduinocommunication over ethernet instead of usb2015-08-05 05/08/1598801Rajaneesh…
Scilab-ArduinoWhich macros is being used? .sci or .bin!!!2015-08-05 05/08/1578902Rajaneesh…
Scilab-Arduinomodification in firmware for pwm freq setup2015-08-05 05/08/1599701Rajaneesh…
SandhiWhile developing source block in sandhi getting errors:2015-08-05 05/08/1593900Ashwini
Sandhigrep2015-08-04 04/08/1592200Ashwini
Scilab-ArduinoCost of Arduino board with shield2015-08-04 04/08/1591102Siva_J
SandhiI want to implement same block as constatnt block2015-07-28 28/07/1594702Ashwini
Scilab-ArduinoUnable to upload program with Scilab Arduino Toolbox2015-07-26 26/07/15139806Navdeep
SandhiI want to change number of input2015-07-23 23/07/1594901Ashwini
Sandhii have module named as D into that block sub. Now i am going to create another …2015-07-23 23/07/15108101Ashwini
FOSSEE Laptophow to enter bios setup2015-07-16 16/07/1589211namitkasl…
SandhiPorting Sandhi program on website2015-07-16 16/07/1593900anamaykane
FOSSEE LaptopNot able to install Flash Plugin in Firefox on FOSSEE2015-07-15 15/07/1586601namitkasl…
SandhiScilab code to Sandhi block2015-07-13 13/07/15102103anamaykane
FOSSEE Laptopprinter2015-05-06 06/05/15119826rodneyber…
PythonCheck if a file exists using Python2015-03-27 27/03/15123105test2
FOSSEE LaptopDamped audio through speakers and headphone2015-03-26 26/03/1596911Srikant